Regional Weather Roundup
Issued by NWS Bismarck, ND

Home | Current Version | Previous Version | Text Only | Print | Product List | Glossary On
Versions: 1 2 3 4 5 6 7 8 9 10 11 12 13 14 15 16 17 18 19 20 21 22 23 24 25 26 27 28 29 30 31 32 33 34 35 36 37 38 39 40 41 42 43 44 45 46 47 48 49 50
000
ASUS43 KBIS 250720
RWRBIS

NWR BROADCAST TEXT
NATIONAL WEATHER SERVICE BISMARCK ND
200 AM CDT MON MAY 25 2015

NOTE: "FAIR" INDICATES FEW OR NO CLOUDS BELOW 12,000 FEET WITH NO
SIGNIFICANT WEATHER AND/OR OBSTRUCTIONS TO VISIBILITY.


CITY           SKY/WX    TMP DP  RH WIND       PRES   REMARKS
WILLISTON      MOCLDY    49  44  83 N5        29.89F
MINOT          CLOUDY    56  48  74 CALM      29.88F
MINOT AFB      CLOUDY    52  52  99 W2        29.87F
BISMARCK       LGT RAIN  56  54  93 NE5       29.88F
DICKINSON      CLOUDY    55  48  77 NE5       29.86F
GARRISON         N/A     59  52  77 S7        29.88F
HETTINGER ARPT CLOUDY    53  50  89 E6        29.86F
JAMESTOWN      LGT RAIN  57  55  93 NW3       29.85F
BEACH          CLOUDY    48  48 100 NW3       29.91S FOG
CARRINGTON     PTSUNNY   57  57 100 NW7       29.88S
CROSBY         FAIR      50  50 100 S6        29.91F
HARVEY         FAIR      57  54  88 W5        29.87F
HAZEN          CLOUDY    55  52  88 CALM      29.89F
LINTON         PTSUNNY   55  55 100 NE3       29.85F FOG
MANDAN         CLOUDY    55  55 100 NE6       29.89S
OAKES          LGT RAIN  55  55 100 N9        29.82F
STANLEY        FAIR      52  52 100 N6        29.91F
TIOGA          FAIR      41  41 100 CALM      29.94S
WATFORD CITY   FAIR      46  45  93 CALM      29.88F
$$

CITY           SKY/WX    TMP DP  RH WIND       PRES   REMARKS
GRAND FORKS    MOCLDY    58  52  80 N3        29.83F
GRAND FORKS AF MOCLDY    54  51  90 NW2       29.84F
DEVILS LAKE    CLOUDY    57  48  72 CALM      29.85F
FARGO          LGT RAIN  60  56  86 NE5       29.83F
CANDO          FAIR      55  50  82 N7        29.88S
CAVALIER       FAIR      54  48  82 NW3       29.86S
GRAFTON        FAIR      57  50  77 CALM      29.85F
LANGDON        FAIR      54  45  71 CALM      29.88F
ROLLA          CLOUDY    54  46  76 N5        29.90F
WALHALLA         N/A     52  52 100 CALM      29.86F
$$

CITY           SKY/WX    TMP DP  RH WIND       PRES   REMARKS
ABERDEEN       RAIN      57  56  96 N9        29.80F FOG
MOBRIDGE       LGT RAIN  57  57 100 NE9       29.79F
BUFFALO          N/A     53  50  89 NE7       29.81S
RAPID CITY     CLOUDY    52  51  97 N9        29.84F
GLASGOW        PTCLDY    54  43  66 SE5       29.90F
SIDNEY         MOCLDY    48  45  87 CALM      29.89F
WOLF POINT     MOCLDY    49  43  80 CALM      29.90F
GLENDIVE       MOCLDY    48  46  93 W3        29.90F
MILES CITY     CLOUDY    52  51  97 W5        29.90S
BAKER          CLOUDY    52  51  97 N5        29.91S
$$

CITY           SKY/WX    TMP DP  RH WIND       PRES   REMARKS
BILLINGS       MOCLDY    51  46  83 W5        29.93S
GREAT FALLS    CLEAR     48  42  80 CALM      29.94F
REGINA         PTCLDY    55  41  58 CALM      29.90S
ESTEVAN        PTCLDY    52  46  82 SE5       29.91F
$$



USA.gov is the U.S. government's official web portal to all federal, state and local government web resources and services.